STARLINK-36852, 67933

Orbit data source: Space-Track

STARLINK-36852, 67933 is a payload satellite owned by SpaceX/Seattle (US) in LEO that was launched on Tue, 24 Feb 2026 UTC via an FALCON 9 launch vehicle from the Air Force Eastern Test Range (AFETR). Payload-class satellites include a variety of spacecraft equipped with specific instruments for various scientific and technological missions. These include communications satellites like Starlink; space stations such as the ISS; scientific satellites like the Hubble; Earth observation satellites from companies like Planet Labs, Umbra, and HawkEye 360; GPS; miniature CubeSats for education and research; and military/defense satellites.

Loading next visibility...
Identifier
67933, 2026-037B
Orbit
LEO
Country
Flag of USUS
Related business
Manufacturer
SpaceX/Seattle
Mission
Operational Commercial Communications
Bus & Motor
STARLINK V2MO, Unknown motor
Mass
575 kg wet, ~530 kg dry
Launch date (UTC)
2026-02-24 (4 months ago)
Launch vehicle
FALCON 9
Launch site
Air Force Eastern Test Range (AFETR)
Object type
Payload
Rocket body
Debris
Shape & HBR
Box + 2 Pan, 17.7 m
Radar Cross Section
36.964 m², Large (>1 m²)

Expand to show TLE details & history
Last TLE update: 1 day ago

TLE from 1 day ago
0 STARLINK-36852
1 67933U 26037B   26170.47847796  .00015686  00000-0  57777-3 0  9996
2 67933  43.0030 336.2749 0000758 169.8428 190.2439 15.27612253 18902
Epoch: 2026-06-19T11:29Z
TLE epoch observation values (Epoch: 2026-06-19T11:29:00.495Z)
Latitude
-0.00004°
Longitude
-103.68408°
Altitude
483.24 km
Speed
7.625 km/s
True Right ascension
22h 25m 05s
True Declination
0° 00' 00"
Sunlit
Object was in daylight at epoch
Visualization orbit readout
Latitude
Unknown
Longitude
Unknown
Altitude
Unknown
Speed
Unknown
Apparent Right ascension
Unknown
Apparent Declination
Unknown
Sunlit
N/A
Visualization observer readout
Local Sidereal Time
07:12:42
Azimuth
Unknown
Elevation
Unknown
Doppler factor
Unknown
Orbital elements
Apogee altitude
485.417 km
Perigee altitude
484.377 km
Semi-major axis
6,863.034 km
Eccentricity
0.00008
Inclination
43.003°
RAAN
336.2749°
Arg. of periapsis
169.8428°
True anomaly
190.24236°
Mean anomaly
190.2439°
Eccentric anomaly
190.24313°
Mean motion
3.81741 °/min
Orbital period
94.3 mins
BSTAR
0.00057777
Loading maneuver chart data...
Computing Atmospheric mass density...
Loading historical data...
Loading historical data...
Loading historical data...
Loading historical data...
Loading historical data...
Loading historical data...
Loading historical data...

Documentation

Showing up to 5 results
|